To NAV CANADA Home Page Login to a new session Search on AWWS site Feedback and Comments Disclaimer Vers la page française équivalente Tips FAQ What's new on the site To the Forecasts and Observations / NOTAM section To "File a Flight Plan" website Publications and other links Update of the User's profile FIC Telephone Numbers My Weather Data Folder Route Weather Data Regional Weather Data Local Weather Data To the Forecasts and Observations / NOTAM section
Request Generated 08/22/2017 at 03:31:21 UTC . Weather information available at that time is displayed.

METAR/TAF

MOOSE JAW/AIR VICE MARSHAL C.M. MCEWEN/SK    

SPECI CYMJ 220029Z 33009KT 15SM FEW070 BKN260 21/02 A3012 RMK CU1CI5 LAST OBS/NEXT 221000 UTC SLP207=
METAR CYMJ 220000Z 31011G17KT 15SM FEW070 BKN260 22/02 A3012 RMK CU1CI5 SLP208=

TAF AMD CYMJ 220031Z 2200/2212 FCST CNCLD DUE END OF FLYING PROGRAM
RMK NXT FCST WILL BE ISSUED AT 221115Z=
Your time UTC time
Weather data provided by Environment Canada and NAV CANADA